User: anonymous   Login
Location: Iesi
(43.5167°N, 13.2333°E)
Time: 06:48:53
(UTC+00:00)
Language:

Cosmos 2237 Rocket - Orbit

View from above orbital plane
View from above orbital plane
View from above satellite
View from above satellite

Ground track
Ground track

The orbit data is extracted from the following two-line orbital elements,

1 22566U 93016B   20295.23364297 -.00000189 +00000-0 -73026-4 0  9996
2 22566 071.0095 021.7255 0008118 069.8898 290.3097 14.14963240424120
Epoch (UTC): 21 October 2020 05:36:26
Eccentricity: 0.0008118
inclination: 71.0095°
perigee height: 836 km
apogee height: 848 km
right ascension of ascending node: 21.7255°
argument of perigee: 69.8898°
revolutions per day: 14.14963240
mean anomaly at epoch: 290.3097°
orbit number at epoch: 42412

The dashed part of the orbit path shows where the satellite is in the earth's shadow,  

DLR